Waarnemingen

Advertentie
Mijn weer
Tomelloso, Spanje (8276): temperatuur & dauwpunt: 23.01.2020 19:00:00 - 29.01.2020 19:00:00 (CET)Tomelloso, Spanje (8276): windsnelheid & windstoten: 23.01.2020 19:00:00 - 29.01.2020 19:00:00 (CET)Tomelloso, Spanje (8276): windrichting: 23.01.2020 19:00:00 - 29.01.2020 19:00:00 (CET)Tomelloso, Spanje (8276): luchtdruk: 23.01.2020 19:00:00 - 29.01.2020 19:00:00 (CET)Tomelloso, Spanje (8276): zicht: 23.01.2020 19:00:00 - 29.01.2020 19:00:00 (CET)Tomelloso, Spanje (8276): Zonneschijnduur: 23.01.2020 19:00:00 - 29.01.2020 19:00:00 (CET)Tomelloso, Spanje (8276): neerslag: 23.01.2020 19:00:00 - 29.01.2020 19:00:00 (CET)
Datum & Tijd tt [°C] td [°C] ff [km/u] ff [kn] fx [km/u] fx [kn] dd ppp [hPa] vv [km] sd [min] rr [mm]
29.01.2020 19:00:00 11,7 8,0 7 4 19 10 WZW 1024,6 11 0 -
29.01.2020 18:00:00 13,0 7,8 10 5 22 12 W 1024,1 12 17 0,0
29.01.2020 17:00:00 13,9 7,8 12 6 24 13 W 1023,7 13 55 0,0
29.01.2020 16:00:00 14,9 8,8 13 7 26 14 W 1023,1 14 60 0,0
29.01.2020 15:00:00 14,7 8,1 12 6 25 14 W 1023,5 15 52 0,0
29.01.2020 14:00:00 13,5 8,8 11 6 27 15 W 1024,6 10 30 0,0
29.01.2020 13:00:00 12,4 9,4 11 6 23 12 W 1025,7 12 22 -
29.01.2020 12:00:00 11,9 9,7 9 5 24 13 W 1026,4 14 11 0,0
29.01.2020 11:00:00 11,1 9,3 11 6 21 12 WZW 1026,6 11 5 0,0
29.01.2020 10:00:00 10,1 9,3 10 5 19 10 WZW 1026,5 12 0 0,0
29.01.2020 09:00:00 9,5 8,9 8 5 16 9 ZW 1026,3 10 0 0,0
29.01.2020 08:00:00 9,6 8,7 6 4 16 9 WZW 1026,0 3,5 0 0,0
29.01.2020 07:00:00 9,6 8,7 7 4 17 9 WZW 1025,4 12 0 -
29.01.2020 06:00:00 9,8 8,8 11 6 23 12 ZW 1025,1 3,7 0 0,0
29.01.2020 05:00:00 9,9 8,7 11 6 23 12 ZW 1025,1 11 0 0,0
29.01.2020 04:00:00 9,9 8,5 9 5 18 10 ZW 1025,4 12 0 0,0
29.01.2020 03:00:00 9,9 8,7 10 6 21 12 ZW 1025,3 12 0 0,0
29.01.2020 02:00:00 9,9 8,7 8 4 16 9 ZW 1025,3 12 0 0,0
29.01.2020 01:00:00 9,9 8,7 9 5 21 11 ZW 1025,7 13 0 -
29.01.2020 00:00:00 9,8 8,8 11 6 23 13 ZW 1025,7 13 0 0,0
28.01.2020 23:00:00 10,0 8,8 14 8 25 13 WZW 1025,8 13 0 0,0
28.01.2020 22:00:00 10,1 9,0 13 7 24 13 ZW 1025,5 12 0 0,0
28.01.2020 21:00:00 9,9 9,2 10 6 25 13 ZW 1025,3 12 0 0,0
28.01.2020 20:00:00 9,9 8,8 12 7 25 13 ZW 1024,9 11 0 0,0
28.01.2020 19:00:00 10,2 9,2 13 7 25 14 WZW 1024,7 12 0 -
28.01.2020 18:00:00 10,6 9,3 11 6 26 14 WZW 1024,6 12 0 0,0
28.01.2020 17:00:00 10,8 9,4 11 6 32 18 WZW 1024,5 14 0 0,0
28.01.2020 16:00:00 10,8 9,6 14 8 27 15 WZW 1024,2 13 0 0,0
28.01.2020 15:00:00 10,1 9,4 12 6 29 16 WZW 1024,8 9 0 0,2
28.01.2020 14:00:00 10,0 9,4 12 6 28 15 WZW 1025,4 3,1 0 0,0
28.01.2020 13:00:00 10,3 9,0 14 7 28 15 WZW 1025,8 10 0 -
28.01.2020 12:00:00 9,8 8,9 13 7 34 19 ZW 1026,2 3,5 0 0,0
28.01.2020 11:00:00 10,1 8,0 16 9 32 17 ZW 1025,8 13 0 0,0
28.01.2020 10:00:00 9,3 7,8 15 8 29 16 ZW 1025,4 12 0 0,0
28.01.2020 09:00:00 8,9 7,3 14 8 29 16 ZW 1025,4 12 0 0,0
28.01.2020 08:00:00 8,5 7,1 14 8 29 16 ZW 1024,9 12 0 0,0
28.01.2020 07:00:00 8,4 7,1 15 8 27 14 ZW 1024,7 11 0 -
28.01.2020 06:00:00 8,3 7,3 14 8 31 17 ZW 1024,7 8 0 0,0
28.01.2020 05:00:00 8,5 6,8 15 8 31 17 ZW 1024,5 10 0 0,0
28.01.2020 04:00:00 9,0 6,5 14 8 26 14 ZW 1024,7 11 0 0,0
28.01.2020 03:00:00 9,0 6,2 11 6 29 15 ZW 1025,1 12 0 0,0
28.01.2020 02:00:00 8,9 6,2 12 7 26 14 ZW 1025,2 12 0 0,0
28.01.2020 01:00:00 8,4 5,6 13 7 27 14 ZW 1025,8 12 0 -
28.01.2020 00:00:00 8,2 5,5 14 8 27 15 ZW 1025,9 12 0 0,0
27.01.2020 23:00:00 8,2 5,3 15 8 28 15 ZW 1026,0 11 0 0,0
27.01.2020 22:00:00 7,9 5,1 16 9 33 18 ZW 1025,8 11 0 0,0
27.01.2020 21:00:00 8,3 5,3 16 8 27 15 ZW 1025,3 11 0 0,0
27.01.2020 20:00:00 8,6 5,0 9 5 25 13 WZW 1025,0 12 0 0,0
27.01.2020 19:00:00 9,2 5,0 14 7 28 15 WZW 1024,4 12 0 -
27.01.2020 18:00:00 9,9 5,6 10 5 18 10 W 1024,2 12 9 0,0
27.01.2020 17:00:00 10,2 5,8 9 5 22 12 W 1024,2 12 1 0,0
27.01.2020 16:00:00 10,7 5,3 13 7 26 14 W 1024,3 12 19 0,0
27.01.2020 15:00:00 9,9 4,8 12 7 29 16 W 1025,0 11 5 0,0
27.01.2020 14:00:00 9,6 5,0 13 7 29 16 W 1025,4 6 30 0,0
27.01.2020 13:00:00 - - - - - - - - - - -
27.01.2020 12:00:00 9,0 5,0 10 6 24 13 W 1027,0 12 60 0,0
27.01.2020 11:00:00 7,3 4,3 11 6 24 13 WZW 1027,7 13 60 0,0
27.01.2020 10:00:00 4,5 2,3 10 5 17 9 ZZW 1028,2 11 53 0,0
27.01.2020 09:00:00 2,2 1,1 9 5 16 9 ZZW 1028,8 11 0 0,0
27.01.2020 08:00:00 1,4 0,6 7 4 11 6 WZW 1029,3 11 0 0,0
27.01.2020 07:00:00 2,1 0,9 5 3 18 10 ZZW 1028,2 12 0 -
27.01.2020 06:00:00 2,2 0,9 9 5 15 8 ZW 1027,7 12 0 0,0
27.01.2020 05:00:00 2,6 1,3 9 5 17 9 ZW 1027,8 12 0 0,0
27.01.2020 04:00:00 2,7 1,5 8 4 15 8 ZW 1028,1 12 0 0,0
27.01.2020 03:00:00 2,8 1,7 9 5 16 9 ZW 1028,2 13 0 0,0
27.01.2020 02:00:00 3,4 2,3 9 5 16 9 ZW 1028,2 13 0 0,0
27.01.2020 01:00:00 3,6 2,5 8 4 15 8 ZW 1028,6 12 0 -
27.01.2020 00:00:00 3,7 2,5 7 4 13 7 ZW 1029,0 11 0 0,0
26.01.2020 23:00:00 4,4 3,0 8 4 18 10 ZW 1028,6 10 0 0,0
26.01.2020 22:00:00 5,0 3,4 8 4 18 10 WZW 1028,2 10 0 0,0
26.01.2020 21:00:00 6,1 3,6 8 4 18 10 WZW 1027,3 12 0 0,0
26.01.2020 20:00:00 6,8 3,6 9 5 17 9 W 1026,3 11 0 0,0
26.01.2020 19:00:00 7,8 4,1 9 5 18 10 WZW 1025,5 12 0 -
26.01.2020 18:00:00 9,4 3,9 10 6 26 14 W 1024,3 13 22 0,0
26.01.2020 17:00:00 10,9 3,4 11 6 23 13 W 1023,5 14 30 0,0
26.01.2020 16:00:00 10,3 4,3 10 5 21 12 W 1023,5 13 3 0,0
26.01.2020 15:00:00 10,0 5,0 7 4 20 11 W 1023,7 13 5 0,0
26.01.2020 14:00:00 9,3 5,6 9 5 21 11 W 1024,3 15 0 0,0
26.01.2020 13:00:00 9,8 6,7 9 5 16 9 W 1024,5 15 9 -
26.01.2020 12:00:00 8,7 6,2 7 4 17 9 W 1025,0 14 0 0,0
26.01.2020 11:00:00 7,8 6,4 9 5 18 10 W 1024,9 13 28 0,0
26.01.2020 10:00:00 7,3 6,2 8 4 14 8 W 1024,4 13 28 0,2
26.01.2020 09:00:00 6,1 5,5 9 5 16 9 W 1024,0 11 0 0,0
26.01.2020 08:00:00 6,2 5,6 7 4 18 10 W 1023,2 12 0 0,0
26.01.2020 07:00:00 6,2 5,8 8 4 16 8 W 1022,2 10 0 -
26.01.2020 06:00:00 6,5 5,9 8 4 23 12 W 1021,5 9 0 0,0
26.01.2020 05:00:00 6,6 5,9 9 5 18 10 WZW 1021,3 12 0 0,0
26.01.2020 04:00:00 6,6 5,9 6 3 16 9 WZW 1020,9 11 0 0,0
26.01.2020 03:00:00 6,6 5,9 7 4 16 9 WZW 1020,6 12 0 0,0
26.01.2020 02:00:00 6,7 5,6 8 5 16 8 WZW 1020,4 13 0 0,0
26.01.2020 01:00:00 6,8 5,8 7 4 16 8 WZW 1020,1 12 0 -
26.01.2020 00:00:00 7,1 5,9 6 3 16 9 WZW 1019,8 13 0 0,0
25.01.2020 23:00:00 7,2 5,9 8 5 16 9 ZW 1019,7 13 0 0,0
25.01.2020 22:00:00 7,3 5,9 6 3 12 7 ZW 1019,3 11 0 0,0
25.01.2020 21:00:00 7,5 6,1 7 4 18 10 ZZW 1018,8 12 0 0,0
25.01.2020 20:00:00 7,7 6,5 6 4 10 5 ZZW 1018,3 13 0 0,0
25.01.2020 19:00:00 7,9 6,5 5 3 17 9 ZW 1017,8 11 0 -
25.01.2020 18:00:00 8,8 7,0 4 2 15 8 Z 1016,8 10 0 0,0
25.01.2020 17:00:00 9,6 6,2 10 6 19 10 Z 1016,4 15 0 0,0
25.01.2020 16:00:00 9,2 6,4 13 7 22 12 Z 1016,6 14 0 0,0
25.01.2020 15:00:00 8,7 6,5 11 6 19 11 Z 1017,1 12 0 0,2
25.01.2020 14:00:00 7,9 6,4 13 7 23 12 Z 1018,3 10 0 0,8
25.01.2020 13:00:00 8,1 6,4 13 7 19 10 Z 1018,9 11 0 -
25.01.2020 12:00:00 7,2 6,2 9 5 14 8 ZZO 1020,0 6 0 1,0
25.01.2020 11:00:00 5,9 5,6 3 1 7 4 O 1020,2 4,7 0 1,0
25.01.2020 10:00:00 5,4 5,0 4 2 6 3 N 1020,1 4,5 0 0,6
25.01.2020 09:00:00 4,9 4,3 4 2 8 4 NO 1019,6 11 0 0,0
25.01.2020 08:00:00 4,7 3,9 3 2 6 3 ZZO 1019,4 13 0 0,0
25.01.2020 07:00:00 5,2 3,9 5 3 8 5 Z 1019,1 13 0 -
25.01.2020 06:00:00 5,0 4,3 4 2 8 5 ZZO 1019,2 12 0 0,0
25.01.2020 05:00:00 6,2 5,1 6 3 13 7 Z 1018,6 13 0 0,0
25.01.2020 04:00:00 5,8 5,1 5 3 8 5 O 1019,1 10 0 0,4
25.01.2020 03:00:00 5,6 4,8 5 3 9 5 O 1019,6 7 0 0,2
25.01.2020 02:00:00 5,8 4,8 8 5 13 7 ONO 1019,4 11 0 0,0
25.01.2020 01:00:00 6,5 5,0 11 6 18 10 Z 1019,9 11 0 -
25.01.2020 00:00:00 4,8 4,3 3 1 8 4 O 1020,7 10 0 0,2
24.01.2020 23:00:00 4,3 3,8 4 2 9 5 OZO 1021,1 11 0 0,0
24.01.2020 22:00:00 4,9 4,3 5 3 8 5 O 1020,9 11 0 0,0
24.01.2020 21:00:00 5,7 5,0 5 3 10 6 O 1020,7 9 0 0,0
24.01.2020 20:00:00 6,3 5,5 8 4 13 7 O 1020,4 9 0 0,0
24.01.2020 19:00:00 7,7 6,4 10 6 16 9 ONO 1019,5 9 0 -
24.01.2020 18:00:00 9,2 7,1 10 5 15 8 NO 1019,2 11 0 0,0
24.01.2020 17:00:00 10,0 7,3 10 5 15 8 ONO 1019,2 10 2 0,0
24.01.2020 16:00:00 10,9 6,7 10 6 16 9 ONO 1018,9 11 34 0,0
24.01.2020 15:00:00 10,4 6,5 6 3 16 9 ONO 1019,5 11 22 0,0
24.01.2020 14:00:00 10,0 5,1 6 3 10 5 O 1020,5 12 0 0,0
24.01.2020 13:00:00 9,2 5,0 8 4 11 6 O 1021,6 11 2 -
24.01.2020 12:00:00 8,3 5,3 8 5 11 6 OZO 1022,5 12 14 0,0
24.01.2020 11:00:00 6,1 5,0 9 5 11 6 O 1022,9 12 0 0,0
24.01.2020 10:00:00 4,5 3,9 5 3 7 4 ONO 1022,9 20 0 0,0
24.01.2020 09:00:00 3,9 3,4 5 3 8 5 NO 1023,1 20 0 0,2
24.01.2020 08:00:00 3,7 3,0 4 2 10 5 O 1022,7 9 0 0,0
24.01.2020 07:00:00 3,8 3,2 8 4 14 8 O 1022,0 10 0 -
24.01.2020 06:00:00 3,8 2,9 7 4 9 5 ONO 1021,9 10 0 0,0
24.01.2020 05:00:00 4,6 3,4 3 2 17 9 ONO 1021,3 10 0 0,0
24.01.2020 04:00:00 4,3 3,2 12 7 18 10 O 1021,2 10 0 0,0
24.01.2020 03:00:00 4,3 3,2 10 5 18 10 O 1021,2 10 0 0,0
24.01.2020 02:00:00 3,9 3,0 6 3 15 8 O 1021,6 8 0 0,0
24.01.2020 01:00:00 3,3 2,5 9 5 15 8 ONO 1021,9 9 0 -
24.01.2020 00:00:00 3,0 1,7 10 5 18 10 ONO 1022,0 9 0 0,0
23.01.2020 23:00:00 4,8 2,1 6 4 11 6 O 1021,3 10 0 0,0
23.01.2020 22:00:00 6,4 3,0 9 5 17 9 ZZO 1020,6 10 0 0,0
23.01.2020 21:00:00 3,9 2,3 8 4 14 7 ONO 1021,0 12 0 0,0
23.01.2020 20:00:00 5,4 3,0 9 5 14 7 OZO 1020,1 11 0 0,0
23.01.2020 19:00:00 6,9 4,6 7 4 13 7 O 1019,2 10 0 -

tt = temperatuur
td = dauwpunt
ff = windsnelheid
fx = windstoten
dd = windrichting
ppp = luchtdruk
vv = zicht
sd = Zonneschijnduur
rr = neerslag

Weerstations in de omgeving